[[{"header":{"parameterUnit":"m.s-1","parameterCategory":1,"la1":30.2991,"la2":30.254,"lo1":-89.0895,"lo2":-89.0444,"dy":0.0017,"dx":0.0017,"nx":28,"ny":28,"refTime":"2024-06-22T09:00:00:Z","depth":0,"parameterNumber":2,"parameterNumberName":"U-component_of_WINDS"},"data":[0,0,0,0,0,0,0,0,0,0,0,0,0,0,0,0,0,0,0,0,0,0,0,0,0,0,0,0,0,0,0,0,0,0,0,0,0,0,0,0,0,0,0,0,0,0,0,0,0,0,0,0,0,0,0,0,0,0,1.4216,1.4217,0,1.4226,1.4226,1.4226,1.4195,1.4194,1.4193,1.4192,1.4201,1.4202,1.4203,0,0,0,0,0,0,0,0,0,0,0,0,0,1.417,1.4171,1.4216,1.4217,1.4217,1.4226,1.4226,1.4226,1.4195,1.4194,1.4193,1.4192,1.4201,1.4202,1.4204,0,0,0,0,0,0,0,0,0,0,0,0,0,1.4186,1.4171,1.4216,1.4202,1.4201,1.4226,1.4226,1.4226,1.4195,1.4194,1.4192,1.4191,1.42,1.4202,1.4204,1.4242,0,0,1.4209,1.421,0,0,0,0,0,0,0,0,1.4185,1.4187,1.4204,1.4203,1.4202,1.4208,1.4213,1.4231,1.4195,1.4197,1.4192,1.419,1.4205,1.4206,1.4211,1.4243,1.4243,1.4209,1.421,1.4211,1.4211,0,0,0,0,0,0,0,1.4184,1.4187,1.422,1.4204,1.4203,1.4195,1.4195,1.4216,1.4209,1.4197,1.4195,1.4196,1.4204,1.4209,1.4211,1.4243,1.4209,1.4211,1.4212,1.4212,1.4304,1.4305,0,0,0,0,0,0,1.4185,1.4186,1.422,1.422,1.419,1.4197,1.4197,1.4207,1.4208,1.4207,1.4198,1.4195,1.4207,1.4209,1.4211,1.4254,1.4211,1.4212,1.4213,1.4302,1.4304,1.4306,0,0,0,0,0,0,1.4184,1.4188,1.4219,1.4203,1.4206,1.4199,1.421,1.4208,1.4214,1.4209,1.4207,1.4205,1.4206,1.4208,1.4234,1.4254,1.4213,1.4215,1.4301,1.4303,1.4305,1.4342,0,0,0,0,0,0,1.4182,1.4188,1.4203,1.4203,1.4207,1.4243,1.4211,1.4209,1.4217,1.4213,1.4215,1.4214,1.4205,1.4232,1.4236,1.4255,1.4216,1.4299,1.4302,1.4304,1.4339,1.4345,1.435,0,0,0,0,0,1.4181,1.4214,1.4204,1.4208,1.4226,1.4245,1.4247,1.4236,1.4218,1.4233,1.4229,1.4214,1.4251,1.4234,1.4239,1.4259,1.4298,1.4301,1.4304,1.4336,1.4343,1.435,0,0,0,0,0,0,1.4217,1.4214,1.4203,1.4237,1.4241,1.4239,1.4258,1.4245,1.4254,1.425,1.4236,1.4237,1.4264,1.4264,1.4246,1.4295,1.4271,1.4275,1.4294,1.4301,1.4307,1.4306,1.4217,0,0,0,0,0,1.4229,1.4245,1.4241,1.4271,1.4274,1.4265,1.4273,1.4264,1.4268,1.427,1.4268,1.4272,1.4284,1.4293,1.4304,1.4338,1.4337,1.4354,1.436,1.4364,1.4368,1.4383,1.439,1.4316,1.4316,1.4316,0,0,1.4254,1.4254,1.4265,1.4278,1.4281,1.4296,1.4267,1.4286,1.4296,1.4272,1.4296,1.4294,1.4298,1.4327,1.434,1.4328,1.4388,1.4369,1.4372,1.4373,1.4387,1.4394,1.4401,1.4318,1.4318,1.4318,0,0,1.4307,1.431,1.4334,1.4336,1.4339,1.4333,1.4339,1.4338,1.4336,1.4359,1.434,1.4353,1.4375,1.4377,1.4381,1.4431,1.4416,1.4435,1.4465,1.448,1.4486,1.4491,1.4507,1.4513,1.4439,1.4439,1.4439,0,1.4338,1.4361,1.4348,1.4367,1.4372,1.435,1.4373,1.4376,1.4383,1.4386,1.4373,1.4398,1.4399,1.4427,1.4438,1.4443,1.4448,1.4435,1.4486,1.4491,1.4496,1.451,1.4517,1.4441,1.4441,1.4441,1.4441,0,1.4398,1.4414,1.4433,1.4438,1.4446,1.4467,1.4456,1.4465,1.4454,1.4448,1.4471,1.4471,1.448,1.4486,1.4477,1.4512,1.4504,1.4489,1.4464,1.4505,1.4519,1.4524,1.4444,1.4444,1.4443,1.4442,0,0,1.4476,1.4472,1.4479,1.448,1.448,1.4492,1.4511,1.4519,1.4526,1.4531,1.4545,1.4563,1.4547,1.4552,1.4542,1.4555,1.4592,1.4538,1.4537,1.4546,1.4628,1.4639,1.4646,1.4582,1.4583,1.4584,1.4627,0,1.4527,1.4559,1.4546,1.4579,1.4592,1.4569,1.4585,1.4586,1.4581,1.4591,1.4585,1.4596,1.4577,1.4579,1.4591,1.4585,1.4608,1.4582,1.4594,1.4595,1.4593,1.4654,1.4666,1.4707,1.4633,1.4634,1.4634,0,1.4591,1.4596,1.463,1.4625,1.463,1.4645,1.465,1.466,1.466,1.4655,1.4658,1.4644,1.4661,1.4637,1.4658,1.464,1.4644,1.4642,1.4643,1.4643,1.4617,1.4654,1.472,1.4726,1.4643,1.4642,1.4642,0,1.4642,1.4658,1.468,1.4681,1.4677,1.4687,1.4685,1.4684,1.4689,1.4693,1.4695,1.4702,1.4705,1.471,1.4697,1.4681,1.4719,1.4695,1.4715,1.4715,1.4724,1.4723,1.479,1.4728,1.4728,1.4728,1.4728,0,1.47,1.4721,1.4702,1.4716,1.4737,1.4721,1.4744,1.4739,1.4738,1.4748,1.473,1.474,1.4723,1.4732,1.4722,1.474,1.4742,1.4737,1.4734,1.4739,1.4739,1.4741,1.4737,1.4729,1.4729,1.4729,1.4728,0,1.4761,1.475,1.4771,1.4764,1.4762,1.4779,1.4772,1.4783,1.4775,1.4789,1.4791,1.478,1.4788,1.4776,1.4784,1.4777,1.4801,1.4794,1.4801,1.4798,1.4818,1.4816,1.4887,1.4895,1.483,1.483,1.4831,0,1.4798,1.4814,1.4807,1.4813,1.4812,1.4821,1.4825,1.481,1.4815,1.4814,1.4824,1.4831,1.4836,1.485,1.4842,1.4847,1.4839,1.4864,1.484,1.4842,1.4837,1.4836,1.4836,1.4868,1.4869,1.487,1.487,0,1.4865,1.4857,1.4864,1.4868,1.4873,1.4876,1.4877,1.4882,1.4865,1.4871,1.4879,1.4883,1.4889,1.4895,1.4898,1.4895,1.4879,1.4878,1.4882,1.4886,1.4889,1.4886,1.4813,1.4876,1.4876,1.4875,1.4875,1.4875,1.4914,1.4925,1.4922,1.4929,1.4927,1.4928,1.4937,1.493,1.4936,1.494,1.493,1.4939,1.4936,1.4937,1.4936,1.4942,1.4931,1.4939,1.494,1.4942,1.4944,1.4888,1.4943,1.4943,1.4943,1.4942,1.4942,0,1.4978,1.4974,1.498,1.4981,1.4986,1.497,1.497,1.4975,1.4983,1.4981,1.4985,1.4993,1.4998,1.4989,1.4992,1.4999,1.4992,1.5001,1.4999,1.4998,1.4954,1.4949,1.5006,1.5006,1.5006,1.5006,1.5006,1.5006,1.5012,1.5029,1.5021,1.5036,1.5032,1.5041,1.5041,1.5041,1.5039,1.5048,1.5052,1.5046,1.504,1.5042,1.5046,1.5043,1.5044,1.5055,1.5049,1.5008,1.5002,1.4996,1.4991,1.5056,1.5056,1.5093,1.5093,1.5093]},{"header":{"parameterUnit":"m.s-1","parameterCategory":1,"la1":30.2991,"la2":30.254,"lo1":-89.0895,"lo2":-89.0444,"dy":0.0017,"dx":0.0017,"nx":28,"ny":28,"refTime":"2024-06-22T09:00:00:Z","depth":0,"parameterNumber":3,"parameterNumberName":"V-component_of_WINDS"},"data":[0,0,0,0,0,0,0,0,0,0,0,0,0,0,0,0,0,0,0,0,0,0,0,0,0,0,0,0,0,0,0,0,0,0,0,0,0,0,0,0,0,0,0,0,0,0,0,0,0,0,0,0,0,0,0,0,0,0,4.0419,4.0419,0,4.0458,4.0458,4.0458,4.0422,4.0421,4.0419,4.0418,4.0453,4.0455,4.0457,0,0,0,0,0,0,0,0,0,0,0,0,0,4.0308,4.031,4.0419,4.0419,4.042,4.0458,4.0458,4.0459,4.0423,4.0421,4.0419,4.0417,4.0452,4.0454,4.0457,0,0,0,0,0,0,0,0,0,0,0,0,0,4.0352,4.0311,4.0419,4.0407,4.0406,4.0457,4.0458,4.0459,4.0423,4.0421,4.0419,4.0417,4.0451,4.0454,4.0458,4.0522,0,0,4.0468,4.0469,0,0,0,0,0,0,0,0,4.035,4.0356,4.0408,4.0408,4.0407,4.0433,4.0432,4.048,4.0423,4.0416,4.0418,4.0416,4.0447,4.0451,4.0463,4.0523,4.0525,4.0468,4.047,4.0472,4.0473,0,0,0,0,0,0,0,4.0347,4.0355,4.0434,4.0409,4.0408,4.0397,4.0401,4.0441,4.0443,4.0417,4.0414,4.042,4.0447,4.046,4.0463,4.0525,4.0468,4.0471,4.0473,4.0475,4.0639,4.0641,0,0,0,0,0,0,4.0346,4.0352,4.0433,4.0435,4.0373,4.0401,4.0405,4.0427,4.0443,4.0443,4.0421,4.0418,4.0455,4.0459,4.0464,4.054,4.0472,4.0475,4.0477,4.0637,4.0639,4.0642,0,0,0,0,0,0,4.0344,4.0354,4.0431,4.0393,4.0402,4.0405,4.0429,4.0429,4.0442,4.0446,4.0446,4.0435,4.0453,4.046,4.0508,4.0541,4.0476,4.0479,4.0634,4.0637,4.0641,4.0692,0,0,0,0,0,0,4.0341,4.0353,4.0379,4.0394,4.0404,4.0476,4.0432,4.0431,4.0448,4.0444,4.0459,4.0459,4.0452,4.0503,4.0511,4.0544,4.0482,4.0631,4.0635,4.064,4.0687,4.0697,4.0705,0,0,0,0,0,4.0337,4.0391,4.038,4.039,4.0437,4.0478,4.0483,4.0476,4.0451,4.0476,4.0479,4.0458,4.0536,4.0508,4.0517,4.0552,4.0629,4.0634,4.0639,4.0683,4.0695,4.0705,0,0,0,0,0,0,4.0377,4.0392,4.0381,4.0442,4.0459,4.0472,4.0503,4.0489,4.0512,4.0507,4.0495,4.0498,4.0549,4.0555,4.0524,4.0614,4.0578,4.0585,4.0608,4.0619,4.0628,4.0625,4.0485,0,0,0,0,0,4.0394,4.0427,4.0438,4.049,4.05,4.05,4.0517,4.051,4.0527,4.0534,4.054,4.0556,4.0583,4.0602,4.0627,4.0688,4.069,4.0716,4.0725,4.0732,4.0738,4.077,4.0781,4.0659,4.0659,4.0659,0,0,4.0427,4.0439,4.0461,4.0499,4.0511,4.0545,4.0506,4.0543,4.0567,4.0539,4.0585,4.059,4.0606,4.0661,4.0685,4.0667,4.0772,4.0739,4.0744,4.0747,4.0776,4.0788,4.0798,4.0663,4.0662,4.0661,0,0,4.0505,4.0518,4.0563,4.0577,4.0597,4.0597,4.0607,4.0622,4.0625,4.0672,4.0651,4.0678,4.0726,4.0739,4.0751,4.0834,4.0815,4.0842,4.0888,4.0919,4.0928,4.0937,4.0966,4.0976,4.0848,4.0849,4.0849,0,4.0544,4.0595,4.0588,4.0627,4.0643,4.062,4.0665,4.0677,4.0704,4.0715,4.0695,4.0755,4.0764,4.0821,4.0841,4.0852,4.0863,4.084,4.0928,4.0936,4.0944,4.0971,4.0982,4.0852,4.0851,4.0851,4.0851,0,4.0641,4.0677,4.071,4.0739,4.0759,4.08,4.0797,4.0818,4.0809,4.0811,4.0857,4.0868,4.0895,4.0908,4.0899,4.0963,4.0952,4.093,4.0894,4.0959,4.0984,4.0995,4.0856,4.0855,4.0854,4.0853,0,0,4.0746,4.077,4.0782,4.0794,4.0814,4.0841,4.088,4.0909,4.0926,4.0945,4.0977,4.1018,4.0999,4.1013,4.1005,4.1032,4.1096,4.1007,4.1007,4.1023,4.1166,4.1183,4.1195,4.1084,4.1086,4.1087,4.1165,0,4.0824,4.0895,4.0889,4.0956,4.0988,4.0966,4.1,4.1015,4.1017,4.1043,4.1045,4.1074,4.1046,4.1054,4.108,4.1083,4.1124,4.1077,4.1112,4.1113,4.1109,4.1208,4.1225,4.1298,4.1175,4.1177,4.1178,0,4.0925,4.0949,4.1019,4.1034,4.1048,4.1079,4.1104,4.113,4.1145,4.1145,4.1161,4.1148,4.1186,4.1149,4.1201,4.1168,4.1182,4.1185,4.1188,4.1191,4.115,4.1213,4.1321,4.1332,4.1193,4.1192,4.1191,0,4.0994,4.1044,4.1092,4.1103,4.1122,4.1144,4.1153,4.1167,4.1184,4.1205,4.1216,4.124,4.1254,4.1273,4.1266,4.124,4.1319,4.1281,4.1318,4.1318,4.1335,4.1334,4.1447,4.1345,4.1345,4.1345,4.1344,0,4.1082,4.1126,4.1123,4.1153,4.12,4.1192,4.1239,4.1244,4.1257,4.1286,4.1268,4.1295,4.1285,4.1311,4.1306,4.1349,4.1355,4.1355,4.1353,4.1356,4.1356,4.1365,4.136,4.1348,4.1347,4.1346,4.1346,0,4.1167,4.1168,4.1219,4.1232,4.1237,4.1271,4.1282,4.1309,4.1309,4.1346,4.1354,4.1355,4.1384,4.138,4.1413,4.1409,4.1463,4.1454,4.1458,4.1456,4.1493,4.1489,4.1614,4.163,4.1519,4.152,4.1521,0,4.1223,4.1256,4.1274,4.1293,4.1304,4.1334,4.1352,4.1345,4.1364,4.1384,4.1408,4.1437,4.1459,4.1507,4.1509,4.1534,4.1526,4.1568,4.153,4.1532,4.1526,4.1524,4.1527,4.1576,4.1577,4.1578,4.1579,0,4.1323,4.1321,4.1348,4.1376,4.1398,4.1419,4.1437,4.1453,4.1448,4.1469,4.1501,4.1518,4.1552,4.158,4.1603,4.1609,4.1593,4.1591,4.1601,4.1605,4.1605,4.1605,4.1478,4.1588,4.1587,4.1587,4.1586,4.1586,4.1394,4.1423,4.144,4.147,4.1484,4.1502,4.1528,4.1532,4.1559,4.1587,4.158,4.1615,4.1629,4.1659,4.1668,4.1694,4.1678,4.1692,4.1696,4.1699,4.1704,4.1602,4.1698,4.1698,4.1697,4.1697,4.1697,0,4.1492,4.1502,4.1531,4.1558,4.1582,4.1566,4.1586,4.1606,4.1638,4.1653,4.1676,4.1711,4.1738,4.1742,4.1767,4.1787,4.178,4.1794,4.1792,4.1794,4.1716,4.1705,4.1799,4.1799,4.1799,4.1799,4.1799,4.1799,4.1546,4.1593,4.1594,4.1646,4.1655,4.1691,4.1703,4.1719,4.1731,4.1772,4.1795,4.1798,4.1808,4.1834,4.1858,4.1858,4.1868,4.1885,4.1882,4.181,4.18,4.179,4.1779,4.1887,4.1887,4.1958,4.1958,4.1959]}]]